GW0118 Weather Reports


time (UTC)temp
C
wind
direction
speed
KPH
gust
KPH
rain 1hr
cm
rain 24hr
cm
rain mn
cm
humidity
%
barometer
mb
20260904010112 16 0 0.0 0.0 0.00 0.00 0.00 39 1027.8
20260904004603 16 0 0.0 1.6 0.00 0.00 0.00 38 1027.9
20260904003110 17 0 0.0 3.2 0.00 0.00 0.00 36 1027.9
20260904001604 17 0 0.0 1.6 0.00 0.00 0.00 35 1028.0
20260903234603 18 0 0.0 1.6 0.00 0.00 0.00 33 1028.0
20260903233101 18 0 0.0 0.0 0.00 0.00 0.00 33 1028.1
20260903231601 18 0 0.0 1.6 0.00 0.00 0.00 31 1028.1
20260903224603 19 89 0.0 0.0 0.00 0.00 0.00 29 1027.8
20260903223104 20 147 0.0 4.8 0.00 0.00 0.00 29 1027.8
20260903221604 20 137 0.0 8.0 0.00 0.00 0.00 28 1027.8
20260903220124 19 58 6.4 12.9 0.00 0.00 0.00 30 1027.8
20260903214605 21 0 0.0 1.6 0.00 0.00 0.00 28 1027.7
20260903213104 21 0 0.0 4.8 0.00 0.00 0.00 26 1027.7
20260903211619 22 0 0.0 0.0 0.00 0.00 0.00 28 1027.8
20260903210110 22 0 0.0 0.0 0.00 0.00 0.00 26 1027.7
20260903204603 23 0 0.0 1.6 0.00 0.00 0.00 25 1027.7
20260903203133 25 252 0.0 4.8 0.00 0.00 0.00 22 1027.6
20260903201603 26 0 0.0 0.0 0.00 0.00 0.00 22 1027.4
20260903200113 27 156 0.0 4.8 0.00 0.00 0.00 17 1027.2
20260903194605 28 135 0.0 4.8 0.00 0.00 0.00 15 1027.1
20260903193106 28 0 0.0 1.6 0.00 0.00 0.00 15 1027.0
20260903191605 30 0 0.0 8.0 0.00 0.00 0.00 14 1026.7
20260903190104 30 1 9.7 17.7 0.00 0.00 0.00 13 1026.5
20260903184559 30 312 4.8 11.3 0.00 0.00 0.00 15 1026.5
20260903183104 31 291 3.2 11.3 0.00 0.00 0.00 16 1026.4
20260903181558 32 273 3.2 9.7 0.00 0.00 0.00 19 1026.2
20260903180106 33 261 6.4 12.9 0.00 0.00 0.00 19 1026.1
20260903174601 33 260 6.4 12.9 0.00 0.00 0.00 18 1025.9
20260903173109 33 237 4.8 22.5 0.00 0.00 0.00 17 1026.0
20260903171616 34 259 4.8 8.0 0.00 0.00 0.00 17 1026.0
20260903170104 34 251 1.6 14.5 0.00 0.00 0.00 17 1025.9
20260903164640 34 267 1.6 17.7 0.00 0.00 0.00 17 1025.9
20260903163103 33 269 9.7 17.7 0.00 0.00 0.00 15 1025.8
20260903161600 33 219 14.5 24.1 0.00 0.00 0.00 18 1025.9
20260903160106 34 238 9.7 22.5 0.00 0.00 0.00 17 1025.9
20260903154606 34 236 4.8 14.5 0.00 0.00 0.00 18 1025.9
20260903153108 33 282 11.3 17.7 0.00 0.00 0.00 18 1025.9
20260903151604 33 219 8.0 16.1 0.00 0.00 0.00 17 1026.0
20260903150100 33 233 3.2 16.1 0.00 0.00 0.00 18 1026.1
20260903144609 33 243 3.2 19.3 0.00 0.00 0.00 18 1026.1
20260903143104 33 262 11.3 20.9 0.00 0.00 0.00 17 1026.3
20260903141606 33 213 11.3 24.1 0.00 0.00 0.00 16 1026.4
20260903134620 33 218 11.3 22.5 0.00 0.00 0.00 16 1026.6
20260903133108 33 224 9.7 20.9 0.00 0.00 0.00 17 1026.7
20260903131605 32 259 9.7 22.5 0.00 0.00 0.00 17 1026.9
20260903124615 32 253 9.7 24.1 0.00 0.00 0.00 19 1026.9
20260903123107 31 27 3.2 22.5 0.00 0.00 0.00 21 1027.0
20260903121606 31 210 6.4 17.7 0.00 0.00 0.00 20 1027.3
20260903120110 31 245 14.5 22.5 0.00 0.00 0.00 22 1027.3
20260903114600 31 304 6.4 19.3 0.00 0.00 0.00 21 1027.3
20260903113144 31 252 4.8 24.1 0.00 0.00 0.00 22 1027.5
20260903111604 31 190 6.4 11.3 0.00 0.00 0.00 25 1027.5
20260903110109 30 154 8.0 19.3 0.00 0.00 0.00 25 1027.6
20260903104622 30 210 9.7 19.3 0.00 0.00 0.00 27 1027.8
20260903103106 29 245 8.0 12.9 0.00 0.00 0.00 29 1027.8
20260903101617 29 252 8.0 14.5 0.00 0.00 0.00 30 1027.9
20260903100103 28 219 4.8 12.9 0.00 0.00 0.00 33 1028.0
20260903094601 27 240 1.6 6.4 0.00 0.00 0.00 38 1027.9
20260903093106 27 259 0.0 4.8 0.00 0.00 0.00 44 1027.9
20260903091605 26 0 0.0 3.2 0.00 0.00 0.00 47 1028.0
20260903090105 25 0 0.0 3.2 0.00 0.00 0.00 50 1027.8
20260903084610 23 36 1.6 3.2 0.00 0.00 0.00 56 1027.9
20260903083103 22 51 0.0 3.2 0.00 0.00 0.00 59 1027.8
20260903081603 21 32 3.2 6.4 0.00 0.00 0.00 62 1027.9
20260903080103 21 55 1.6 4.8 0.00 0.00 0.00 63 1027.9
20260903074558 20 56 0.0 1.6 0.00 0.00 0.00 64 1027.8
20260903073109 18 0 0.0 0.0 0.00 0.00 0.00 65 1027.9
20260903071610 17 0 0.0 1.6 0.00 0.00 0.00 67 1028.0
20260903070100 17 0 0.0 1.6 0.00 0.00 0.00 68 1027.8
20260903064614 15 0 0.0 4.8 0.00 0.00 0.00 74 1027.8
20260903063106 15 70 1.6 6.4 0.00 0.00 0.00 73 1027.7
20260903061607 15 68 0.0 3.2 0.00 0.00 0.00 72 1027.7
20260903060108 15 120 0.0 1.6 0.00 0.00 0.00 74 1027.4
20260903054603 15 0 0.0 1.6 0.00 0.00 0.00 73 1027.3
20260903053102 15 0 0.0 0.0 0.00 0.00 0.00 72 1027.2
20260903051616 15 0 0.0 0.0 0.00 0.00 0.00 72 1027.0
20260903044604 16 0 0.0 0.0 0.00 0.00 0.00 70 1027.0
20260903043207 16 0 0.0 1.6 0.00 0.00 0.00 70 1026.9
20260903041607 16 0 0.0 1.6 0.00 0.00 0.00 70 1026.8
20260903034602 16 125 3.2 6.4 0.00 0.00 0.00 69 1026.9
20260903033100 17 115 0.0 3.2 0.00 0.00 0.00 65 1026.8
20260903031603 18 0 0.0 3.2 0.00 0.00 0.00 64 1026.8
20260903030103 18 0 0.0 4.8 0.00 0.00 0.00 63 1026.9
20260903024607 18 92 0.0 3.2 0.00 0.00 0.00 64 1026.9
20260903023101 18 0 0.0 1.6 0.00 0.00 0.00 63 1026.8
20260903021603 19 0 0.0 6.4 0.00 0.00 0.00 60 1026.9
20260903020106 20 102 0.0 6.4 0.00 0.00 0.00 61 1026.7
20260903014604 20 70 1.6 4.8 0.00 0.00 0.00 60 1026.7
20260903013109 20 117 1.6 6.4 0.00 0.00 0.00 60 1026.7
20260903011608 20 58 1.6 6.4 0.00 0.00 0.00 59 1026.7